User: anonymous   Login
Location: Unspecified
(0.0000°N, 0.0000°E)
Time: 19:36:54
(UTC+00:00)
Language:

UOSAT-12 - Orbit

View from above orbital plane
View from above orbital plane
View from above satellite
View from above satellite

Ground track
Ground track

The orbit data is extracted from the following two-line orbital elements,

1 25693U 99021A   19341.12122044 -.00000080  00000-0  81339-5 0  9998
2 25693  64.5556 222.4776 0008363 215.9070 144.1474 14.80864591113862
Epoch (UTC): 07 December 2019 02:54:33
Eccentricity: 0.0008363
inclination: 64.5556°
perigee height: 621 km
apogee height: 632 km
right ascension of ascending node: 222.4776°
argument of perigee: 215.9070°
revolutions per day: 14.80864591
mean anomaly at epoch: 144.1474°
orbit number at epoch: 11386

The dashed part of the orbit path shows where the satellite is in the earth's shadow,  

DLR